STARLINK-1449 (45666 NORAD) Tracking and Keplerian Element Data

This shows tracking and keplerian element data for the satellite.

Feedback or suggestion? Click here.




ElementValue
Catalog45666
NameSTARLINK-1449
Epoch Orbit1059
Epoch Day218.91667824
Epoch Year2020
RAAN232.4835
Inclination52.9992
Eccentricity0.0001443
Argument of Perigee65.738
Mean Anonmoly322.8079
Mean Motion15.05565095
Decay Rate0.00044232
L11 45666U 20035K 20218.91667824 .00044232 00000-0 30371-2 0 9994
L22 45666 52.9992 232.4835 0001443 65.7380 322.8079 15.05565095 10590

Live tracking and technical data element details for STARLINK-1449 (NORAD 45666). STARLINK-1449 can be tracked NOW for your location showing map with azimuth and elevation plus other details from your city location.

Track the satellite on the map from your city or location and see movement details for azimuth, elevation, latitude, longitude, range, height, and movement on the map or in text.







IsCatalogInMostPopularTable: catalog: 45666, numindb: 14
Update: records affected: 1



GetName: 45666 STARLINK-1449

Hit Count: updated at: Fri, 07 Aug 2020 23:41:39 GMT